Ord, NE

10:06 PM CDT on April 27, 2017 (GMT -0500)
Sharp

Weather History for KODX - November, 2012

Change the Weather History Date:

Friday, November 23, 2012

  Actual Average Record
Temperature  
Mean Temperature 26 °F 33 °F  
Max Temperature 38 °F 45 °F 67 °F (2011)
Min Temperature 14 °F 21 °F 5 °F (2010)
Degree Days  
Heating Degree Days 39 32  
Month to date heating degree days 597 619  
Since 1 July heating degree days 1288 1239  
Cooling Degree Days 0 0  
Month to date cooling degree days 0 0  
Year to date cooling degree days 1220 845  
Moisture  
Dew Point 10 °F    
Average Humidity 50    
Maximum Humidity 67    
Minimum Humidity 32    
Precipitation  
Precipitation 0.00 in 0.03 in 0.25 in (1899)
Month to date precipitation 0.05 0.87  
Year to date precipitation 11.42 24.15  
Sea Level Pressure  
Sea Level Pressure 30.51 in    
Wind  
Wind Speed 11 mph (NW)    
Max Wind Speed 30 mph    
Max Gust Speed 37 mph    
Visibility 10 miles    
Events      
T = Trace of Precipitation, MM = Missing Value Source: NWS Daily Summary

Daily Weather History Graph

Daily Weather History Graph

Search for Another Location

Airport or City:

Trip Planner

Search our weather history database for the weather conditions in past years. The results will help you decide how hot, cold, wet, or windy it might be!

Date:

Astronomy

Nov. 23, 2012 Rise Set
Actual Time 7:34 AM CST 5:09 PM CST
Civil Twilight 7:04 AM CST 5:39 PM CST
Nautical Twilight 6:30 AM CST 6:14 PM CST
Astronomical Twilight 5:57 AM CST 6:47 PM CST
Moon 2:27 PM CST (11/23) 2:52 AM CST (11/23)
Length of Visible Light 10h 35m
Length of Day
9h 34m
Waxing Gibbous, 80% of the Moon is Illuminated
Nov 23
Waxing Gibbous
Nov 28
Full
Dec 6
Last Quarter
Dec 13
New
Dec 19
First Quarter

Hourly Weather History & Observations

Time (CST) Temp. Windchill Dew Point Humidity Pressure Visibility Wind Dir Wind Speed Gust Speed Precip Events Conditions
12:53 AM 26.1 °F 11.0 °F 10.9 °F 53% 30.45 in 10.0 mi NNW 24.2 mph 31.1 mph N/A   Clear
1:53 AM 23.0 °F 7.2 °F 10.0 °F 58% 30.47 in 10.0 mi NW 23.0 mph 34.5 mph N/A   Clear
2:53 AM 21.9 °F 5.8 °F 10.0 °F 60% 30.48 in 10.0 mi NW 23.0 mph 33.4 mph N/A   Clear
3:53 AM 19.9 °F 4.3 °F 9.0 °F 62% 30.51 in 10.0 mi NNW 19.6 mph 29.9 mph N/A   Clear
4:53 AM 19.0 °F 2.0 °F 9.0 °F 65% 30.53 in 10.0 mi NNW 23.0 mph 28.8 mph N/A   Clear
5:53 AM 18.0 °F 4.2 °F 9.0 °F 68% 30.56 in 10.0 mi NNW 13.8 mph - N/A   Clear
6:53 AM 17.1 °F 2.0 °F 9.0 °F 71% 30.57 in 10.0 mi NW 16.1 mph - N/A   Clear
7:53 AM 17.1 °F 2.5 °F 9.0 °F 71% 30.58 in 10.0 mi NW 15.0 mph - N/A   Clear
8:53 AM 19.9 °F 4.3 °F 9.0 °F 62% 30.60 in 10.0 mi NW 19.6 mph 26.5 mph N/A   Clear
9:53 AM 23.0 °F 9.2 °F 9.0 °F 55% 30.61 in 10.0 mi NW 17.3 mph - N/A   Clear
10:53 AM 27.0 °F 15.2 °F 10.0 °F 49% 30.60 in 10.0 mi NW 15.0 mph - N/A   Clear
11:53 AM 30.9 °F 21.2 °F 10.0 °F 42% 30.59 in 10.0 mi NW 12.7 mph - N/A   Clear
12:53 PM 33.1 °F 23.9 °F 10.9 °F 40% 30.56 in 10.0 mi NW 12.7 mph - N/A   Clear
1:53 PM 36.0 °F 27.1 °F 10.9 °F 36% 30.53 in 10.0 mi WNW 13.8 mph - N/A   Clear
2:53 PM 37.0 °F 32.4 °F 10.9 °F 34% 30.51 in 10.0 mi WNW 5.8 mph - N/A   Clear
3:53 PM 37.0 °F 33.3 °F 10.9 °F 34% 30.50 in 10.0 mi WNW 4.6 mph - N/A   Clear
4:53 PM 33.1 °F 26.9 °F 10.9 °F 40% 30.50 in 10.0 mi WNW 6.9 mph - N/A   Clear
5:53 PM 25.0 °F 19.3 °F 9.0 °F 51% 30.49 in 10.0 mi SSW 4.6 mph - N/A   Clear
6:53 PM 21.9 °F - 9.0 °F 58% 30.49 in 10.0 mi Calm Calm - N/A   Clear
7:53 PM 21.9 °F - 9.0 °F 58% 30.47 in 10.0 mi Calm Calm - N/A   Clear
8:53 PM 19.9 °F - 9.0 °F 62% 30.46 in 10.0 mi Calm Calm - N/A   Clear
9:53 PM 18.0 °F - 8.1 °F 65% 30.43 in 10.0 mi Calm Calm - N/A   Clear
10:53 PM 17.1 °F - 8.1 °F 68% 30.42 in 10.0 mi Calm Calm - N/A   Clear
11:53 PM 16.0 °F - 8.1 °F 71% 30.40 in 10.0 mi Calm Calm - N/A   Clear